Location: Casilda
(33.0440°S, 61.1680°W)
Time: 23:03:03
(UTC-03:00)

ISS - Pass Details

Date: 15 September 2018
Orbit: 403 x 408 km, 51.6° (Epoch: 25 September)

Event Time Altitude Azimuth Distance (km) Brightness Sun altitude
Rises 19:21:49 0° 243° (WSW) 2,356 1.4 -6.1°
Reaches altitude 10° 19:24:22 10° 263° (W) 1,487 0.8 -6.7°
Maximum altitude 19:26:42 18° 308° (NW) 1,099 -0.9 -7.2°
Drops below altitude 10° 19:29:01 10° 352° (N) 1,474 -0.9 -7.6°
Sets 19:31:32 0° 12° (NNE) 2,326 -0.1 -8.2°
